Wind_Speed
18 18 15 13 16 19 17 18 20 22 23 22 24 26 28 28 28 30 33 33 32 34 37 40 42 43 46 49 53 55 59 62 66 66 70 71 70 70 74 75 72 73 75
12 13 14 19 16 16 16 17 16 18 19 18 20 22 22 23 25 28 27 30 34 37 37 36 37 37 41 41 44 49 54 56 58 59 62 62 65 70 72 73 74 73 74
17 21 18 22 16 15 17 16 15 18 15 14 18 21 23 26 24 21 20 20 20 23 25 28 31 31 33 37 40 39 42 48 51 55 57 59 61 63 65 67 68 69 71
15 17 19 18 16 17 17 14 14 14 9 14 17 24 21 21 23 24 24 26 25 24 27 29 26 26 29 32 32 36 40 40 39 40 43 46 49 54 58 60 60 62 65
12 15 10 18 18 18 16 15 14 16 17 20 21 20 21 21 22 25 29 31 30 31 27 23 24 25 29 30 32 32 33 34 36 35 34 37 41 44 46 46 48 52 54
12 12 13 16 24 22 21 19 21 21 23 24 23 24 24 23 24 26 29 32 33 33 35 35 35 32 38 32 29 34 35 31 29 30 33 29 31 35 39 42 43 45 47
16 15 17 18 21 25 23 23 23 25 24 24 24 25 27 27 28 31 33 33 36 38 40 38 39 39 40 34 37 36 35 32 27 24 28 29 31 29 30 32 36 37 39
19 20 16 21 22 26 29 28 27 21 23 25 27 28 28 31 34 35 34 38 42 42 42 40 42 41 39 37 35 36 30 34 28 25 25 23 24 26 24 27 29 34 36
27 17 17 19 20 23 26 28 25 24 27 29 30 30 32 35 39 41 41 41 42 41 42 41 46 42 39 39 35 34 28 31 32 30 26 22 23 20 17 18 20 25 28
27 23 20 19 19 20 25 25 25 27 29 29 30 33 35 36 39 40 47 49 45 52 44 49 47 47 51 42 35 30 29 31 33 33 31 27 24 19 20 21 18 20 21
25 19 19 23 24 26 26 26 29 29 31 33 34 37 39 39 44 49 49 52 52 46 47 47 44 44 53 44 38 35 29 26 33 35 35 27 23 23 21 19 18 16 17
26 24 27 30 29 28 30 30 32 34 36 36 35 37 38 39 42 41 46 50 45 48 46 32 41 45 43 43 36 35 31 30 31 40 36 30 28 24 24 22 20 19 20
28 31 32 30 32 30 25 29 27 29 30 34 36 32 39 38 43 44 45 42 48 42 32 33 28 34 38 33 35 31 34 30 27 38 34 34 31 27 26 26 25 23 21
38 36 36 36 32 27 29 31 31 32 38 40 40 40 46 47 49 44 44 37 38 37 34 31 26 34 36 36 38 36 32 33 26 27 31 32 32 31 28 27 28 29 27
33 34 36 39 35 33 30 30 35 40 41 42 44 46 47 50 52 53 53 40 44 43 33 32 32 35 41 44 42 41 37 34 28 24 28 29 33 32 31 28 28 25 28
28 30 33 35 37 34 35 39 39 41 40 41 40 42 43 46 52 56 55 46 40 37 33 32 33 31 40 44 48 47 47 39 34 29 28 31 32 35 29 23 25 30 30
30 30 32 34 37 37 39 42 48 53 53 45 42 46 46 45 54 55 50 57 47 41 36 36 34 34 43 44 39 38 46 51 39 35 34 33 32 38 37 34 27 29 34
33 35 36 40 42 43 46 50 48 51 51 51 52 51 55 58 58 56 59 59 53 48 45 37 47 44 52 52 52 55 53 53 50 43 39 38 39 36 34 32 35 36 31
43 44 47 48 46 49 54 56 57 57 58 57 57 61 69 68 65 68 71 71 65 55 49 56 54 50 58 64 65 63 57 52 52 52 43 46 40 36 39 39 38 36 39
47 51 53 55 56 58 62 65 67 68 72 71 66 67 75 73 70 77 79 77 77 64 56 63 71 69 70 75 72 59 61 52 53 58 59 60 61 56 44 44 35 36 39
52 53 54 55 66 71 74 74 76 79 78 76 78 79 80 82 84 85 85 82 83 70 64 69 71 73 70 77 70 55 59 57 56 67 62 65 68 61 54 47 49 44 41
56 58 64 70 77 82 84 82 80 80 86 85 82 85 89 89 88 87 90 89 91 82 70 65 73 72 76 81 69 64 64 64 65 71 70 68 68 62 62 60 51 51 43
62 63 65 70 77 84 86 88 90 93 93 92 88 95 97 92 95 95 92 93 93 89 80 79 81 80 79 82 80 75 66 62 74 75 75 75 67 67 71 64 58 48 51
66 72 73 74 81 83 85 96 100 97 99 98 96 95 94 98 101 98 101 91 83 85 82 85 85 78 81 86 82 83 82 69 74 75 76 72 67 62 62 65 64 60 57
71 72 77 79 89 91 90 93 93 101 102 102 107 109 108 106 88 113 104 92 84 83 76 81 81 88 80 87 87 85 83 77 67 74 73 69 72 72 71 67 67 69 64
87 89 89 93 102 100 102 105 104 113 108 111 112 109 112 112 110 113 106 94 87 80 64 70 105 101 94 92 87 85 89 78 60 59 73 73 67 69 70 68 69 70 69
Wind_Direction
286 283 270 282 292 289 287 281 272 271 267 270 272 273 273 275 278 278 280 278 278 275 275 274 272 268 269 268 266 267 269 266 264 265 265 265 266 268 266 266 265 267 268
304 305 318 329 318 296 286 285 278 279 287 284 275 268 268 270 272 278 281 284 285 282 281 273 270 271 269 271 271 267 265 267 267 265 264 265 267 267 268 267 267 267 268
321 325 320 308 297 279 280 282 277 284 283 243 255 259 265 270 271 274 277 279 282 282 286 287 285 286 281 278 272 275 274 269 266 265 265 265 265 265 265 265 266 267 268
324 330 315 290 266 249 259 258 251 254 235 250 261 263 270 273 267 273 277 287 282 287 284 279 284 291 291 292 292 282 278 275 272 267 266 266 266 266 267 267 267 268 269
307 297 292 258 238 237 237 239 229 218 252 268 272 291 283 291 295 297 296 299 300 297 305 304 291 301 303 293 291 285 282 283 274 272 273 272 268 268 269 269 270 269 270
275 293 261 242 234 236 249 259 256 255 267 276 279 280 277 282 293 299 304 309 313 315 318 314 311 312 312 306 297 286 280 276 284 284 278 277 274 271 270 271 272 273 270
261 254 269 257 256 248 267 271 271 274 274 277 280 284 284 285 295 299 305 304 307 312 313 320 318 313 313 312 305 298 278 271 272 276 280 276 274 275 277 275 274 274 272
255 261 265 260 270 265 270 271 270 267 274 278 278 286 296 294 297 307 307 308 310 307 317 317 315 316 312 307 307 305 278 269 261 266 275 283 286 282 281 281 278 276 275
258 256 264 277 283 283 279 271 271 279 290 287 288 292 298 300 298 305 307 308 312 312 311 317 313 311 308 305 305 305 290 267 256 256 263 276 280 288 289 299 298 290 284
256 260 262 273 280 280 281 283 294 287 286 288 286 287 291 294 301 305 309 310 309 312 315 317 309 308 302 296 295 298 294 275 257 250 255 266 262 265 273 290 299 302 300
252 248 259 271 273 280 284 287 284 289 291 289 290 295 300 305 304 304 305 305 309 311 317 310 304 308 299 293 291 295 301 277 276 261 256 255 259 255 255 268 291 294 303
256 246 254 261 276 284 288 288 292 295 295 292 293 303 313 311 308 308 306 307 306 311 319 308 311 300 295 290 283 296 302 296 281 262 254 256 248 257 257 259 269 286 287
260 257 262 271 283 282 288 295 301 304 314 310 301 312 323 322 317 313 311 312 314 316 303 300 306 300 296 294 285 291 305 303 289 265 256 255 250 251 260 260 259 267 275
269 268 271 275 280 280 281 287 290 308 304 303 308 303 319 317 319 323 312 311 311 306 286 287 296 299 293 288 289 286 300 302 287 270 258 251 255 255 260 268 264 268 270
264 268 272 274 279 279 283 285 289 292 293 292 297 300 316 320 316 314 314 304 307 299 286 279 285 301 286 283 284 286 293 298 289 271 277 257 254 255 262 266 267 263 268
279 274 272 275 278 280 279 285 289 294 298 297 294 296 299 314 310 303 304 307 301 285 279 271 294 278 273 277 281 283 286 288 286 268 266 270 266 266 272 265 268 267 269
293 295 289 286 280 282 282 279 287 287 293 299 298 289 301 307 308 299 305 310 303 281 265 255 287 291 274 271 271 275 277 279 278 274 270 265 265 272 278 278 268 276 273
288 288 291 287 287 286 284 285 293 287 289 291 292 293 299 304 301 305 305 306 305 288 263 246 280 290 259 261 264 282 268 270 269 267 270 273 265 269 273 276 281 278 276
287 287 288 291 292 291 290 291 290 290 292 291 293 290 294 297 300 304 306 306 301 291 268 274 267 273 256 256 260 271 271 266 262 262 262 268 271 267 271 275 283 280 275
281 283 285 286 286 289 290 285 284 285 287 288 287 286 297 292 295 297 298 300 302 290 269 271 271 271 259 261 263 264 253 256 263 255 257 261 262 266 271 273 274 265 275
281 282 282 286 291 295 292 291 285 286 286 287 284 287 290 291 292 290 292 294 297 291 269 270 263 267 263 262 262 251 247 246 249 254 254 258 257 257 260 269 276 269 274
272 280 288 287 290 290 289 287 286 281 284 283 283 282 285 287 288 291 291 291 297 297 272 265 261 266 269 271 256 246 242 240 243 245 253 252 260 256 254 261 266 263 265
277 277 278 285 290 287 283 283 281 280 285 283 278 283 285 285 286 286 289 288 290 291 280 268 268 266 266 270 264 249 240 251 242 243 247 253 258 250 253 260 260 259 265
282 277 279 280 284 291 289 286 283 285 281 284 281 283 283 283 284 282 284 283 284 284 280 276 271 266 272 272 269 261 247 251 240 240 243 251 253 251 256 252 258 261 265
281 277 274 281 289 286 286 279 282 282 281 284 286 284 284 281 276 279 285 281 273 278 267 277 268 270 264 265 271 266 254 246 247 239 240 246 252 254 255 255 254 262 260
282 285 280 288 296 293 294 293 285 291 285 283 282 278 280 281 278 278 278 275 277 270 253 260 259 264 262 264 266 261 259 243 245 244 241 245 248 250 250 251 253 255 258
Height
10810 10809 10809 10808 10806 10805 10805 10805 10806 10807 10807 10808 10808 10807 10807 10808 10806 10805 10804 10802 10801 10800 10799 10799 10798 10797 10796 10795 10795 10794 10794 10793 10795 10796 10796 10797 10797 10797 10798 10799 10799 10800 10801
10806 10805 10803 10803 10803 10802 10802 10802 10803 10803 10805 10805 10804 10804 10804 10803 10800 10799 10798 10796 10793 10792 10791 10790 10789 10789 10788 10787 10786 10785 10785 10784 10786 10784 10784 10786 10787 10787 10788 10789 10789 10789 10790
10800 10800 10800 10801 10801 10800 10800 10801 10801 10800 10800 10799 10799 10799 10799 10799 10798 10795 10793 10790 10787 10786 10784 10782 10781 10781 10780 10779 10778 10777 10777 10775 10774 10774 10774 10774 10775 10775 10776 10776 10777 10777 10778
10797 10798 10798 10799 10800 10799 10798 10799 10798 10798 10797 10796 10796 10795 10796 10795 10793 10790 10787 10785 10783 10781 10780 10777 10776 10774 10773 10772 10770 10769 10768 10767 10766 10764 10764 10764 10764 10763 10764 10764 10764 10765 10767
10795 10796 10797 10798 10799 10797 10797 10796 10795 10794 10793 10792 10792 10792 10791 10789 10787 10785 10782 10781 10779 10778 10775 10774 10772 10769 10768 10765 10762 10761 10761 10760 10758 10757 10756 10754 10754 10754 10754 10754 10754 10755 10756
10793 10794 10795 10795 10795 10796 10794 10794 10794 10793 10792 10791 10788 10785 10784 10784 10782 10780 10778 10775 10773 10771 10770 10769 10765 10762 10760 10759 10757 10755 10754 10752 10752 10751 10750 10747 10746 10747 10746 10747 10747 10746 10746
10791 10790 10791 10791 10791 10791 10791 10790 10788 10788 10786 10785 10783 10781 10780 10779 10778 10775 10773 10771 10769 10767 10764 10761 10758 10756 10753 10750 10749 10747 10746 10745 10745 10746 10745 10742 10740 10741 10740 10740 10740 10739 10738
10787 10786 10786 10787 10787 10787 10785 10785 10784 10782 10780 10778 10777 10777 10776 10775 10772 10770 10768 10765 10763 10759 10757 10755 10751 10747 10746 10744 10741 10740 10738 10738 10738 10740 10739 10739 10736 10735 10734 10733 10733 10732 10731
10782 10782 10782 10782 10781 10780 10780 10778 10778 10776 10775 10773 10772 10770 10770 10768 10765 10763 10760 10758 10756 10754 10752 10748 10743 10740 10737 10737 10733 10732 10731 10730 10731 10732 10732 10733 10733 10731 10730 10729 10727 10726 10725
10777 10778 10776 10775 10773 10773 10772 10772 10771 10768 10767 10765 10763 10763 10761 10760 10758 10756 10753 10750 10748 10745 10742 10737 10736 10732 10729 10728 10725 10724 10723 10723 10722 10724 10725 10727 10727 10727 10726 10725 10723 10721 10719
10772 10772 10772 10769 10766 10766 10765 10764 10762 10761 10760 10759 10758 10756 10754 10753 10751 10750 10747 10743 10742 10737 10733 10729 10728 10725 10720 10719 10718 10717 10716 10716 10717 10717 10719 10720 10720 10720 10719 10719 10718 10717 10716
10764 10764 10762 10761 10760 10757 10758 10754 10753 10752 10752 10752 10751 10749 10747 10745 10743 10741 10739 10736 10731 10728 10725 10724 10722 10714 10712 10711 10710 10711 10709 10707 10707 10707 10709 10712 10713 10714 10714 10713 10713 10713 10711
10756 10755 10754 10754 10753 10751 10749 10747 10745 10745 10744 10742 10741 10740 10738 10736 10735 10731 10727 10724 10720 10718 10718 10718 10714 10710 10707 10704 10703 10703 10702 10699 10698 10699 10702 10705 10705 10705 10706 10706 10706 10706 10705
10746 10746 10745 10745 10743 10742 10740 10738 10737 10736 10735 10733 10731 10729 10728 10726 10725 10723 10721 10717 10712 10711 10710 10710 10708 10706 10703 10699 10696 10695 10694 10692 10692 10693 10695 10696 10698 10698 10699 10699 10700 10700 10700
10736 10736 10737 10736 10733 10731 10729 10728 10728 10727 10726 10725 10722 10720 10718 10716 10713 10711 10711 10711 10707 10703 10701 10700 10701 10699 10696 10692 10690 10687 10687 10686 10685 10686 10689 10691 10691 10691 10693 10692 10692 10693 10693
10729 10728 10727 10726 10724 10722 10719 10718 10716 10715 10714 10712 10710 10708 10707 10705 10703 10701 10698 10700 10697 10694 10693 10692 10691 10689 10687 10684 10683 10681 10679 10681 10681 10679 10679 10683 10683 10684 10685 10686 10686 10686 10687
10721 10719 10718 10716 10714 10712 10710 10708 10707 10704 10704 10700 10698 10695 10696 10695 10693 10691 10689 10687 10686 10683 10682 10683 10681 10679 10675 10675 10672 10671 10671 10669 10673 10673 10673 10675 10674 10676 10677 10679 10680 10680 10680
10714 10711 10708 10706 10702 10700 10698 10697 10694 10691 10690 10688 10685 10683 10681 10682 10678 10676 10674 10675 10677 10673 10672 10672 10671 10669 10666 10663 10657 10658 10659 10659 10661 10664 10665 10665 10665 10667 10668 10670 10672 10672 10672
10705 10700 10696 10693 10690 10687 10685 10682 10680 10678 10677 10673 10671 10669 10666 10663 10663 10660 10658 10658 10661 10661 10659 10657 10656 10656 10653 10645 10639 10643 10646 10646 10646 10650 10654 10656 10658 10658 10659 10659 10661 10663 10664
10694 10689 10684 10681 10678 10676 10672 10669 10666 10663 10659 10655 10655 10652 10650 10649 10648 10642 10642 10643 10645 10644 10643 10641 10635 10633 10634 10631 10630 10631 10632 10630 10632 10635 10640 10643 10646 10649 10648 10649 10650 10653 10654
10682 10677 10674 10670 10666 10662 10657 10654 10651 10647 10641 10638 10633 10632 10631 10628 10627 10629 10626 10626 10624 10625 10623 10619 10615 10610 10612 10611 10616 10615 10616 10618 10620 10620 10624 10627 10631 10635 10638 10639 10640 10641 10644
10672 10667 10662 10657 10652 10645 10640 10635 10631 10628 10624 10621 10620 10615 10615 10613 10609 10605 10606 10604 10602 10603 10603 10602 10598 10597 10594 10588 10598 10597 10600 10604 10603 10604 10608 10612 10615 10618 10625 10627 10629 10630 10631
10659 10655 10649 10641 10631 10622 10616 10611 10606 10604 10599 10596 10597 10595 10592 10592 10587 10585 10584 10582 10581 10579 10580 10580 10580 10578 10576 10571 10574 10579 10582 10584 10583 10588 10592 10597 10598 10601 10609 10613 10616 10617 10620
10639 10635 10629 10622 10614 10606 10595 10586 10579 10574 10572 10568 10566 10567 10568 10564 10564 10561 10561 10563 10561 10561 10556 10553 10554 10554 10558 10551 10551 10555 10560 10565 10566 10571 10576 10581 10584 10587 10591 10597 10600 10602 10609
10620 10612 10603 10597 10590 10583 10575 10567 10556 10547 10540 10534 10530 10526 10525 10532 10553 10533 10534 10539 10543 10545 10546 10540 10529 10529 10536 10532 10530 10532 10538 10546 10551 10557 10562 10567 10569 10572 10576 10582 10585 10585 10593
10600 10591 10581 10570 10559 10551 10542 10536 10531 10521 10511 10506 10500 10498 10497 10495 10498 10501 10502 10505 10515 10518 10530 10522 10507 10511 10510 10510 10509 10513 10516 10527 10529 10539 10548 10550 10555 10557 10561 10568 10569 10571 10572